Weather History for West Palm Beach, FL

Change the Weather History Date:

Sunday, September 30, 2012

  Actual Average Record
Temperature  
Mean Temperature 83 °F 81 °F  
Max Temperature 89 °F 87 °F 95 °F (1980)
Min Temperature 76 °F 75 °F 63 °F (1919)
Degree Days  
Heating Degree Days 0 0  
Month to date heating degree days 0 0  
Since 1 July heating degree days 0 0  
Cooling Degree Days 18 16  
Month to date cooling degree days 513 502  
Year to date cooling degree days 3417 3208  
Growing Degree Days 32 (Base 50)    
Moisture  
Dew Point 74 °F    
Average Humidity 77    
Maximum Humidity 94    
Minimum Humidity 59    
Precipitation  
Precipitation 0.00 in 0.25 in 3.87 in (1909)
Month to date precipitation 5.93 8.35  
Year to date precipitation 67.40 49.07  
Snow  
Snow 0.00 in - - ()
Month to date snowfall 0.0  
Since 1 July snowfall 0.0  
Since 1 September snowfall 0.0  
Snow Depth 0.00 in    
Sea Level Pressure  
Sea Level Pressure 29.86 in    
Wind  
Wind Speed 6 mph (SSE)    
Max Wind Speed 16 mph    
Max Gust Speed 21 mph    
Visibility 10 miles    
Events      
T = Trace of Precipitation, MM = Missing Value Source: NWS Daily Summary

Daily Weather History Graph

Daily Weather History Graph

Search for Another Location

Airport:

Trip Planner

Search our weather history database for the weather conditions in past years. The results will help you decide how hot, cold, wet, or windy it might be!

Date:

Astronomy

Sep. 30, 2012 Rise Set
Actual Time 7:12 AM EDT 7:07 PM EDT
Civil Twilight 6:49 AM EDT 7:30 PM EDT
Nautical Twilight 6:22 AM EDT 7:57 PM EDT
Astronomical Twilight 5:55 AM EDT 8:24 PM EDT
Moon 7:20 PM EDT 7:34 AM EDT
Length of Visible Light 12h 40m
Length of Day
11h 54m
Full, 100% of the Moon is Illuminated
Sep 30
Full
Oct 8
Last Quarter
Oct 15
New
Oct 21
First Quarter
Oct 29
Full

Hourly Weather History & Observations

Time (EDT) Temp. Heat Index Dew Point Humidity Pressure Visibility Wind Dir Wind Speed Gust Speed Precip Events Conditions
12:53 AM 80.1 °F 84.5 °F 73.9 °F 81% 29.90 in 10.0 mi South 3.5 mph - N/A   Partly Cloudy
1:53 AM 78.1 °F - 73.9 °F 87% 29.89 in 10.0 mi Calm Calm - N/A   Partly Cloudy
2:53 AM 77.0 °F - 73.9 °F 90% 29.87 in 10.0 mi Calm Calm - N/A   Partly Cloudy
3:53 AM 78.1 °F - 73.9 °F 87% 29.86 in 10.0 mi Calm Calm - N/A   Partly Cloudy
4:53 AM 75.9 °F - 73.0 °F 91% 29.86 in 10.0 mi Calm Calm - N/A   Partly Cloudy
5:53 AM 77.0 °F - 73.9 °F 90% 29.86 in 10.0 mi Calm Calm - N/A   Scattered Clouds
6:53 AM 77.0 °F - 73.9 °F 90% 29.86 in 10.0 mi SSE 3.5 mph - N/A   Scattered Clouds
7:53 AM 78.1 °F - 75.0 °F 90% 29.87 in 10.0 mi Calm Calm - N/A   Mostly Cloudy
8:53 AM 82.0 °F 89.4 °F 75.9 °F 82% 29.88 in 10.0 mi Calm Calm - N/A   Mostly Cloudy
9:53 AM 82.9 °F 90.2 °F 75.0 °F 77% 29.89 in 10.0 mi South 4.6 mph - N/A   Mostly Cloudy
10:09 AM 84.2 °F 92.3 °F 75.2 °F 74% 29.89 in 10.0 mi SE 3.5 mph - N/A   Mostly Cloudy
10:53 AM 86.0 °F 93.0 °F 73.0 °F 65% 29.89 in 10.0 mi SSE 9.2 mph - N/A   Mostly Cloudy
11:14 AM 86.0 °F 93.4 °F 73.4 °F 66% 29.88 in 10.0 mi SE 12.7 mph - N/A   Mostly Cloudy
11:53 AM 86.0 °F 93.8 °F 73.9 °F 67% 29.88 in 10.0 mi ESE 8.1 mph - N/A   Scattered Clouds
12:53 PM 88.0 °F 96.5 °F 73.9 °F 63% 29.87 in 10.0 mi SE 12.7 mph 17.3 mph N/A   Mostly Cloudy
1:53 PM 87.1 °F 94.5 °F 73.0 °F 63% 29.86 in 10.0 mi ESE 8.1 mph - N/A   Mostly Cloudy
2:53 PM 88.0 °F 94.7 °F 72.0 °F 59% 29.83 in 10.0 mi SE 12.7 mph - N/A   Mostly Cloudy
3:53 PM 88.0 °F 95.6 °F 73.0 °F 61% 29.81 in 10.0 mi SSE 11.5 mph - N/A   Mostly Cloudy
4:53 PM 87.1 °F 93.6 °F 72.0 °F 61% 29.81 in 10.0 mi SSE 10.4 mph - N/A   Mostly Cloudy
5:53 PM 86.0 °F 92.2 °F 72.0 °F 63% 29.80 in 10.0 mi SSE 10.4 mph 16.1 mph N/A   Mostly Cloudy
6:53 PM 84.0 °F 90.2 °F 73.0 °F 69% 29.81 in 10.0 mi SE 13.8 mph - N/A   Mostly Cloudy
7:53 PM 82.9 °F 88.8 °F 73.0 °F 72% 29.82 in 10.0 mi SSE 12.7 mph - N/A   Scattered Clouds
8:53 PM 82.9 °F 88.8 °F 73.0 °F 72% 29.83 in 10.0 mi SSE 10.4 mph - N/A   Scattered Clouds
9:53 PM 82.0 °F 87.4 °F 73.0 °F 74% 29.84 in 10.0 mi SSE 9.2 mph - N/A   Scattered Clouds
10:53 PM 82.0 °F 87.9 °F 73.9 °F 76% 29.85 in 10.0 mi SSE 5.8 mph - N/A   Scattered Clouds
11:53 PM 82.0 °F 87.4 °F 73.0 °F 74% 29.85 in 10.0 mi SSE 6.9 mph - N/A   Scattered Clouds